Weather in Kazmaaul

Russia / Republic of Dagestan     43°25′45″N   46°45′45″E
temp.,
°C
wind,
m/s
gust,
m/s
humid.,
%
clouds,
%
prec.,
mm/h
press.,
hPa
HPBL,
m
13 may, thu
thu1300:00+10ese34860 0.0 101452
03:00+10ese33870 0.0 101438
06:00+12ese35820 0.0 1014164
09:00+19e45570 0.0 1014644
12:00+24e55480 0.0 1014912
15:00+23e66484 0.0 1014791
18:00+18e57655 0.0 1014349
21:00+12e339139 0.3 101544
14 may, fri
fri1400:00+12e33918 0.2 101445
03:00+12ese33915 0.2 101452
06:00+15ese23817 0.0 1014102
09:00+24se49545 0.0 1013560
12:00+28ese1015380 0.0 1012677
15:00+26ese1119440 0.0 1011727
18:00+21ese1020530 0.0 1011403
21:00+21ese1022350 0.0 1011528
15 may, sat
sat1500:00+19ese920380 0.0 1011357
03:00+18ese715420 0.0 1011287
06:00+18se511560 0.0 1012232
09:00+25se69390 0.0 1012541
12:00+29ese912220 0.0 10121049
15:00+27ese914290 0.0 1011811
18:00+20e816470 0.0 1011305
21:00+17ese716460 0.0 1012237
16 may, sun
sun1600:00+17ese614465 0.0 1011230
03:00+17ese6155112 0.0 1010253
06:00+18ese616555 0.0 1010310
09:00+26ese815340 0.0 1009912
12:00+29ese1117295 0.0 10071372
15:00+26ese1118360 0.0 1006970
18:00+21ese1022470 0.0 1005507
21:00+20ese1022410 0.0 1005527
17 may, mon
mon1700:00+19ese921470 0.0 1005471
03:00+18ese818535 0.0 1004343
06:00+18ese715605 0.0 1005341
09:00+25ese916385 0.0 1005778
12:00+27ese111630100 0.0 1004909
15:00+25ese101739100 0.0 1004746
18:00+20e917540 0.0 1004390
21:00+15ese22725 0.0 100620